Location: STAR School
(35.3054°N, 111.2976°W)
Time: 15:01:47
(UTC-07:00)

deb Explorer IX - Pass Details

Date: 24 May 2019
Orbit: 536 x 1115 km, 38.8° (Epoch: 23 June)

Event Time Altitude Azimuth Distance (km) Brightness Sun altitude
Exits shadow 03:33:54 23° 284° (WNW) 1,183 ? -17.8°
Maximum altitude 03:36:14 54° 354° (N) 667 ? -17.5°
Drops below altitude 10° 03:40:27 10° 73° (ENE) 1,899 ? -16.8°
Sets 03:42:54 0° 78° (ENE) 2,869 ? -16.5°
